[[{"header":{"parameterUnit":"m.s-1","parameterCategory":1,"la1":30.2991,"la2":30.254,"lo1":-89.0895,"lo2":-89.0444,"dy":0.0017,"dx":0.0017,"nx":28,"ny":28,"refTime":"2023-04-26T15:00:00:Z","depth":0,"parameterNumber":2,"parameterNumberName":"U-component_of_WINDS"},"data":[0,0,0,0,0,0,0,0,0,0,0,0,0,0,0,0,0,0,0,0,0,0,0,0,0,0,0,0,0,0,0,0,0,0,0,0,0,0,0,0,0,0,0,0,0,0,0,0,0,0,0,0,0,0,0,0,0,0,1.6208,1.6208,0,1.6206,1.6206,1.6206,1.6174,1.6173,1.6172,1.6171,1.6168,1.6169,1.6169,0,0,0,0,0,0,0,0,0,0,0,0,0,1.6181,1.6182,1.6208,1.6208,1.6208,1.6206,1.6206,1.6206,1.6174,1.6173,1.6172,1.6171,1.6168,1.6168,1.6169,0,0,0,0,0,0,0,0,0,0,0,0,0,1.6188,1.6182,1.6208,1.6192,1.619,1.6206,1.6206,1.6206,1.6174,1.6173,1.6171,1.617,1.6167,1.6168,1.6169,1.6201,0,0,1.6173,1.6173,0,0,0,0,0,0,0,0,1.6187,1.6189,1.6194,1.6193,1.6191,1.6189,1.6195,1.6204,1.6174,1.618,1.6171,1.617,1.6176,1.6176,1.6178,1.6201,1.62,1.6173,1.6173,1.6174,1.6174,0,0,0,0,0,0,0,1.6187,1.6188,1.6207,1.6194,1.6192,1.6184,1.6183,1.6197,1.6185,1.6179,1.6177,1.6177,1.6175,1.6177,1.6178,1.62,1.6173,1.6174,1.6174,1.6175,1.6245,1.6247,0,0,0,0,0,0,1.6189,1.6188,1.6207,1.6207,1.6186,1.6185,1.6185,1.6191,1.6185,1.6183,1.6178,1.6176,1.6176,1.6177,1.6178,1.6212,1.6174,1.6175,1.6175,1.6244,1.6246,1.6247,0,0,0,0,0,0,1.6188,1.6191,1.6207,1.6197,1.6199,1.6187,1.6194,1.6191,1.6194,1.6184,1.6181,1.6184,1.6175,1.6176,1.6195,1.6212,1.6175,1.6176,1.6243,1.6245,1.6246,1.6282,0,0,0,0,0,0,1.6188,1.6191,1.6203,1.6198,1.6199,1.6225,1.6195,1.6192,1.6196,1.6193,1.6188,1.6186,1.6174,1.6193,1.6196,1.6212,1.6177,1.6241,1.6243,1.6246,1.6279,1.6285,1.629,0,0,0,0,0,1.6187,1.6214,1.6204,1.6207,1.6215,1.6226,1.6227,1.6214,1.6198,1.6209,1.6202,1.6186,1.621,1.6196,1.6198,1.6215,1.624,1.6243,1.6246,1.6277,1.6284,1.629,0,0,0,0,0,0,1.6222,1.6213,1.6202,1.6228,1.6228,1.6221,1.6235,1.6222,1.6226,1.6223,1.6205,1.6205,1.6225,1.6222,1.6207,1.6244,1.6222,1.6225,1.6245,1.6251,1.6256,1.6256,1.6178,0,0,0,0,0,1.6233,1.6244,1.6235,1.6259,1.6259,1.6247,1.6252,1.6241,1.6241,1.624,1.6235,1.6234,1.6241,1.6246,1.6252,1.6279,1.6276,1.6292,1.6297,1.6301,1.6304,1.6316,1.6322,1.6256,1.6256,1.6256,0,0,1.6255,1.6251,1.6259,1.6265,1.6264,1.6275,1.6248,1.6261,1.6268,1.6242,1.6259,1.6255,1.6253,1.6275,1.6284,1.6273,1.6322,1.6305,1.6309,1.6309,1.6319,1.6325,1.6331,1.6258,1.6258,1.6258,0,0,1.6301,1.63,1.6318,1.6318,1.6316,1.6308,1.6312,1.6307,1.6303,1.6319,1.63,1.6308,1.6321,1.632,1.6321,1.6364,1.6348,1.6367,1.6393,1.6405,1.641,1.6414,1.6428,1.6433,1.637,1.637,1.637,0,1.6328,1.6344,1.633,1.6343,1.6345,1.6323,1.6341,1.634,1.6341,1.6343,1.633,1.6345,1.6342,1.6362,1.6373,1.6375,1.6378,1.6367,1.6411,1.6415,1.6419,1.6431,1.6437,1.6372,1.6372,1.6371,1.6371,0,1.6377,1.6388,1.6403,1.6404,1.6408,1.6424,1.641,1.6416,1.6405,1.6398,1.6413,1.6409,1.6413,1.6418,1.6407,1.6436,1.6429,1.6414,1.6391,1.6427,1.6439,1.6444,1.6375,1.6374,1.6373,1.6373,0,0,1.6445,1.6436,1.6442,1.6441,1.6437,1.6444,1.6458,1.6462,1.6466,1.6467,1.6477,1.6488,1.6474,1.6475,1.6464,1.6475,1.6506,1.6458,1.6458,1.6465,1.6535,1.6545,1.6551,1.6497,1.6497,1.6498,1.6535,0,1.6487,1.651,1.6497,1.6522,1.6531,1.6509,1.6521,1.6519,1.6512,1.6518,1.651,1.6517,1.6499,1.6499,1.6509,1.6501,1.652,1.6498,1.6504,1.6504,1.6504,1.6558,1.6569,1.6603,1.6539,1.654,1.6541,0,1.654,1.6542,1.6568,1.656,1.6563,1.6574,1.6575,1.6582,1.6578,1.6573,1.6573,1.6559,1.6571,1.655,1.6565,1.655,1.6552,1.6548,1.6549,1.6548,1.6524,1.6556,1.6614,1.6619,1.6548,1.6547,1.6547,0,1.6584,1.6594,1.6609,1.661,1.6602,1.6609,1.6606,1.6602,1.6605,1.6606,1.6607,1.6609,1.661,1.6612,1.6598,1.6584,1.6614,1.6592,1.6608,1.6609,1.6615,1.6614,1.6672,1.6619,1.6619,1.6619,1.6619,0,1.6631,1.6647,1.6629,1.6639,1.6655,1.6639,1.6656,1.6651,1.6647,1.6654,1.6636,1.6643,1.6626,1.6631,1.662,1.6633,1.6634,1.6628,1.6625,1.6629,1.663,1.6629,1.6625,1.662,1.662,1.6619,1.6619,0,1.6683,1.6672,1.6687,1.6678,1.6676,1.6689,1.668,1.6688,1.668,1.6689,1.6691,1.6677,1.6682,1.6669,1.6672,1.6665,1.6683,1.6677,1.6684,1.6681,1.6697,1.6695,1.6755,1.6762,1.6706,1.6707,1.6707,0,1.6714,1.6725,1.6717,1.672,1.6718,1.6725,1.6727,1.6711,1.6714,1.671,1.6718,1.6721,1.6723,1.6731,1.6722,1.6723,1.6716,1.6737,1.6716,1.6719,1.6713,1.6712,1.6712,1.6741,1.6741,1.6742,1.6742,0,1.6768,1.6761,1.6765,1.6766,1.6769,1.677,1.6769,1.6773,1.6756,1.676,1.6764,1.6765,1.6768,1.677,1.677,1.6766,1.675,1.6749,1.6752,1.6756,1.6759,1.6755,1.6694,1.6747,1.6747,1.6747,1.6746,1.6746,1.6808,1.6817,1.6812,1.6816,1.6814,1.6813,1.6819,1.6811,1.6815,1.6815,1.6806,1.6812,1.6807,1.6804,1.6802,1.6805,1.6795,1.6801,1.6802,1.6803,1.6805,1.6759,1.6805,1.6805,1.6805,1.6805,1.6805,0,1.686,1.6855,1.686,1.6858,1.6861,1.6847,1.6845,1.6848,1.6854,1.685,1.6852,1.6856,1.6858,1.6849,1.6849,1.6854,1.6847,1.6854,1.6853,1.6852,1.6815,1.6811,1.686,1.686,1.686,1.686,1.686,1.686,1.6887,1.69,1.6892,1.6903,1.6898,1.6904,1.6903,1.6902,1.6899,1.6904,1.6906,1.69,1.6893,1.6893,1.6894,1.6891,1.6891,1.69,1.6895,1.686,1.6855,1.6849,1.6845,1.6901,1.6901,1.6931,1.6931,1.6931]},{"header":{"parameterUnit":"m.s-1","parameterCategory":1,"la1":30.2991,"la2":30.254,"lo1":-89.0895,"lo2":-89.0444,"dy":0.0017,"dx":0.0017,"nx":28,"ny":28,"refTime":"2023-04-26T15:00:00:Z","depth":0,"parameterNumber":3,"parameterNumberName":"V-component_of_WINDS"},"data":[0,0,0,0,0,0,0,0,0,0,0,0,0,0,0,0,0,0,0,0,0,0,0,0,0,0,0,0,0,0,0,0,0,0,0,0,0,0,0,0,0,0,0,0,0,0,0,0,0,0,0,0,0,0,0,0,0,0,1.5888,1.5889,0,1.5925,1.5926,1.5926,1.5889,1.5887,1.5886,1.5884,1.5921,1.5923,1.5925,0,0,0,0,0,0,0,0,0,0,0,0,0,1.5784,1.5786,1.5888,1.5889,1.5889,1.5925,1.5926,1.5926,1.5889,1.5887,1.5885,1.5884,1.592,1.5923,1.5926,0,0,0,0,0,0,0,0,0,0,0,0,0,1.5826,1.5787,1.5888,1.5875,1.5874,1.5925,1.5926,1.5926,1.5889,1.5887,1.5885,1.5883,1.5919,1.5922,1.5926,1.5991,0,0,1.5937,1.5938,0,0,0,0,0,0,0,0,1.5824,1.583,1.5877,1.5876,1.5875,1.59,1.5902,1.5948,1.589,1.5884,1.5884,1.5882,1.5916,1.5919,1.5931,1.5993,1.5994,1.5937,1.5939,1.594,1.5941,0,0,0,0,0,0,0,1.5821,1.5828,1.5903,1.5877,1.5877,1.5867,1.587,1.5911,1.5911,1.5884,1.5881,1.5886,1.5915,1.5928,1.5931,1.5995,1.5937,1.594,1.5942,1.5943,1.6111,1.6113,0,0,0,0,0,0,1.5819,1.5826,1.5902,1.5904,1.5844,1.587,1.5874,1.5894,1.5911,1.5911,1.5888,1.5884,1.5923,1.5927,1.5933,1.6009,1.594,1.5944,1.5946,1.6109,1.6111,1.6114,0,0,0,0,0,0,1.5817,1.5827,1.59,1.5864,1.5873,1.5874,1.5897,1.5896,1.5909,1.5914,1.5914,1.5901,1.5921,1.5928,1.5977,1.601,1.5945,1.5948,1.6106,1.6109,1.6113,1.6164,0,0,0,0,0,0,1.5815,1.5826,1.5851,1.5865,1.5875,1.5945,1.5899,1.5899,1.5915,1.5911,1.5926,1.5927,1.592,1.5972,1.598,1.6014,1.5951,1.6103,1.6107,1.6112,1.6159,1.6168,1.6177,0,0,0,0,0,1.5811,1.5864,1.5853,1.5862,1.5907,1.5947,1.5952,1.5944,1.5918,1.5943,1.5946,1.5926,1.6005,1.5977,1.5986,1.6021,1.6101,1.6106,1.6111,1.6155,1.6167,1.6176,0,0,0,0,0,0,1.5854,1.5866,1.5853,1.5913,1.5929,1.594,1.5972,1.5956,1.598,1.5975,1.5963,1.5967,1.6018,1.6025,1.5993,1.6085,1.6048,1.6056,1.6079,1.609,1.6098,1.6096,1.5954,0,0,0,0,0,1.5871,1.5903,1.5911,1.5963,1.5971,1.597,1.5987,1.5979,1.5995,1.6002,1.6009,1.6024,1.6053,1.6071,1.6098,1.616,1.6162,1.6188,1.6197,1.6204,1.6211,1.6243,1.6254,1.6131,1.6131,1.6131,0,0,1.5905,1.5915,1.5936,1.5971,1.5983,1.6016,1.5976,1.6013,1.6036,1.6007,1.6054,1.6059,1.6076,1.6132,1.6156,1.6138,1.6245,1.6211,1.6217,1.6219,1.6249,1.6261,1.6271,1.6135,1.6134,1.6134,0,0,1.5984,1.5996,1.604,1.6052,1.607,1.6069,1.6079,1.6093,1.6095,1.6142,1.612,1.6148,1.6197,1.621,1.6223,1.6306,1.6288,1.6315,1.6361,1.6392,1.6402,1.641,1.6439,1.645,1.6321,1.6321,1.6321,0,1.6025,1.6074,1.6064,1.6102,1.6117,1.6093,1.6136,1.6149,1.6174,1.6185,1.6165,1.6226,1.6235,1.6293,1.6313,1.6325,1.6336,1.6313,1.6401,1.641,1.6417,1.6445,1.6456,1.6324,1.6324,1.6324,1.6324,0,1.6122,1.6156,1.6189,1.6215,1.6234,1.6275,1.627,1.6291,1.6281,1.6282,1.6329,1.634,1.6367,1.638,1.6371,1.6436,1.6425,1.6403,1.6367,1.6432,1.6458,1.6468,1.6329,1.6328,1.6327,1.6326,0,0,1.623,1.6249,1.6261,1.6272,1.629,1.6316,1.6355,1.6382,1.6399,1.6418,1.6449,1.6491,1.6471,1.6486,1.6478,1.6505,1.6569,1.648,1.648,1.6496,1.6641,1.6657,1.6669,1.6558,1.656,1.6561,1.6639,0,1.6309,1.6377,1.6369,1.6434,1.6465,1.6441,1.6475,1.6489,1.6491,1.6516,1.6518,1.6547,1.6519,1.6527,1.6554,1.6556,1.6598,1.655,1.6586,1.6588,1.6583,1.6682,1.6699,1.6772,1.6649,1.6651,1.6652,0,1.641,1.6432,1.65,1.6513,1.6525,1.6556,1.658,1.6605,1.662,1.6619,1.6635,1.6622,1.666,1.6623,1.6675,1.6642,1.6656,1.666,1.6662,1.6665,1.6624,1.6687,1.6796,1.6806,1.6668,1.6666,1.6665,0,1.6481,1.6528,1.6574,1.6585,1.66,1.6622,1.6629,1.6642,1.6659,1.668,1.669,1.6715,1.6728,1.6747,1.6741,1.6715,1.6794,1.6756,1.6793,1.6793,1.6811,1.681,1.6922,1.6821,1.6821,1.682,1.682,0,1.657,1.6613,1.6606,1.6635,1.6681,1.6671,1.6717,1.6722,1.6733,1.6762,1.6743,1.677,1.676,1.6786,1.6781,1.6824,1.683,1.683,1.6828,1.6831,1.6831,1.684,1.6835,1.6823,1.6823,1.6822,1.6822,0,1.6657,1.6655,1.6704,1.6715,1.6718,1.6752,1.676,1.6787,1.6787,1.6823,1.683,1.683,1.6859,1.6855,1.6888,1.6884,1.6938,1.693,1.6933,1.6931,1.6968,1.6964,1.709,1.7105,1.6994,1.6996,1.6996,0,1.6714,1.6746,1.676,1.6778,1.6787,1.6816,1.6832,1.6824,1.6842,1.6861,1.6885,1.6913,1.6934,1.6983,1.6985,1.7009,1.7002,1.7044,1.7005,1.7007,1.7001,1.6999,1.7002,1.7051,1.7053,1.7054,1.7055,0,1.6815,1.6812,1.6837,1.6862,1.6882,1.6901,1.6918,1.6933,1.6926,1.6947,1.6977,1.6994,1.7027,1.7055,1.7078,1.7085,1.7068,1.7067,1.7076,1.708,1.708,1.708,1.6953,1.7064,1.7063,1.7062,1.7062,1.7061,1.6888,1.6915,1.6929,1.6957,1.6969,1.6985,1.701,1.7013,1.7038,1.7064,1.7058,1.7091,1.7105,1.7134,1.7143,1.7169,1.7153,1.7167,1.7171,1.7174,1.7178,1.7076,1.7173,1.7173,1.7172,1.7172,1.7172,0,1.6987,1.6994,1.7021,1.7045,1.7067,1.705,1.7068,1.7087,1.7117,1.7131,1.7153,1.7187,1.7213,1.7218,1.7242,1.7262,1.7255,1.7269,1.7267,1.7269,1.7191,1.718,1.7274,1.7274,1.7274,1.7274,1.7274,1.7274,1.7041,1.7085,1.7084,1.7134,1.7141,1.7174,1.7185,1.72,1.7211,1.725,1.7272,1.7274,1.7284,1.7309,1.7333,1.7333,1.7343,1.7359,1.7357,1.7284,1.7274,1.7265,1.7254,1.7362,1.7362,1.7432,1.7432,1.7433]}]]